Location: ??????
(55.7522°N, 37.6156°E)
Time: 18:05:31
(UTC+00:00)

Cosmos 2263 Rocket - Pass Details

Date: 14 June 2025
Orbit: 821 x 848 km, 71.0° (Epoch: 12 July)

Event Time Altitude Azimuth Distance (km) Brightness Sun altitude
Rises 20:00:22 0° 207° (SSW) 3,391 4.9 -8.7°
Reaches altitude 10° 20:02:48 10° 206° (SSW) 2,463 4.2 -8.8°
Maximum altitude 20:08:27 78° 121° (ESE) 872 2.2 -9.1°
Drops below altitude 10° 20:14:10 10° 36° (NE) 2,486 5.2 -9.3°
Sets 20:16:38 0° 35° (NE) 3,425 6.0 -9.4°
